When you browse on this site, cookies collect data to enhance your experience and personalize the content and advertising you see.
Visit our Privacy Policy to learn more. By continuing to use the site, you agree to this use of cookies and data.

Hourly Weather Cobán

Today, 6 July, Monday

Time Temperature Precipitation Wind Pressure Humidity
00:00 +17°C° 0.3 mm 0 mps 654 mmHg 98%
01:00 +19°C° 0.5 mm 1 mps 654 mmHg 98%
02:00 +19°C° 0.5 mm 1 mps 653 mmHg 98%
03:00 +18°C° 0.5 mm 1 mps 652 mmHg 98%
04:00 +19°C° 0.1 mm 1 mps 653 mmHg 98%
05:00 +19°C° 0.1 mm 1 mps 653 mmHg 98%
06:00 +19°C° 0.1 mm 1 mps 654 mmHg 98%
07:00 +19°C° 0 mm 0 mps 654 mmHg 89%
08:00 +21°C° 0 mm 0 mps 655 mmHg 81%
09:00 +23°C° 0 mm 0 mps 656 mmHg 72%
10:00 +23°C° 0.4 mm 0 mps 656 mmHg 72%
11:00 +26°C° 0.4 mm 1 mps 656 mmHg 71%
12:00 +26°C° 0.4 mm 1 mps 656 mmHg 71%
13:00 +26°C° 0.5 mm 1 mps 655 mmHg 72%
14:00 +26°C° 0.5 mm 1 mps 655 mmHg 74%
15:00 +26°C° 0.5 mm 1 mps 654 mmHg 75%
16:00 +25°C° 0.5 mm 1 mps 654 mmHg 81%
17:00 +21°C° 0.5 mm 0 mps 654 mmHg 87%
18:00 +20°C° 0.5 mm 0 mps 654 mmHg 92%
19:00 +19°C° 0 mm 0 mps 654 mmHg 93%
20:00 +20°C° 0 mm 1 mps 654 mmHg 94%
21:00 +19°C° 0 mm 1 mps 654 mmHg 94%
22:00 +19°C° 0 mm 1 mps 654 mmHg 94%
23:00 +19°C° 0 mm 1 mps 654 mmHg 94%

Tomorrow, 7 July, Tuesday

Time Temperature Precipitation Wind Pressure Humidity
00:00 +19°C° 0 mm 1 mps 654 mmHg 94%
01:00 +18°C° 0 mm 1 mps 654 mmHg 94%
02:00 +16°C° 0 mm 0 mps 654 mmHg 94%
03:00 +16°C° 0 mm 0 mps 653 mmHg 94%
04:00 +16°C° 0 mm 0 mps 654 mmHg 94%
05:00 +16°C° 0 mm 0 mps 654 mmHg 94%
06:00 +16°C° 0 mm 0 mps 654 mmHg 94%
07:00 +18°C° 0 mm 0 mps 655 mmHg 85%
08:00 +23°C° 0 mm 1 mps 656 mmHg 76%
09:00 +25°C° 0 mm 1 mps 657 mmHg 67%
10:00 +26°C° 0.1 mm 1 mps 657 mmHg 64%
11:00 +27°C° 0.1 mm 1 mps 657 mmHg 61%
12:00 +27°C° 0.1 mm 1 mps 656 mmHg 58%
13:00 +27°C° 0.5 mm 1 mps 656 mmHg 61%
14:00 +27°C° 0.5 mm 1 mps 655 mmHg 65%
15:00 +26°C° 0.5 mm 1 mps 654 mmHg 69%
16:00 +25°C° 0.3 mm 1 mps 654 mmHg 75%
17:00 +24°C° 0.3 mm 1 mps 654 mmHg 81%
18:00 +21°C° 0.3 mm 0 mps 654 mmHg 87%
19:00 +19°C° 0.1 mm 0 mps 654 mmHg 90%
20:00 +18°C° 0.1 mm 0 mps 654 mmHg 93%
21:00 +19°C° 0.1 mm 1 mps 654 mmHg 96%
22:00 +19°C° 0 mm 1 mps 654 mmHg 96%
23:00 +17°C° 0 mm 0 mps 654 mmHg 96%

Day after tomorrow, 8 July, Wednesday

Time Temperature Precipitation Wind Pressure Humidity
00:00 +16°C° 0 mm 0 mps 654 mmHg 96%
01:00 +16°C° 0 mm 0 mps 654 mmHg 96%
02:00 +16°C° 0 mm 0 mps 654 mmHg 95%
03:00 +16°C° 0 mm 0 mps 653 mmHg 95%
04:00 +16°C° 0 mm 0 mps 653 mmHg 94%
05:00 +16°C° 0 mm 0 mps 653 mmHg 93%
06:00 +16°C° 0 mm 0 mps 653 mmHg 92%
07:00 +18°C° 0 mm 0 mps 654 mmHg 84%
08:00 +20°C° 0 mm 0 mps 655 mmHg 75%
09:00 +22°C° 0 mm 0 mps 656 mmHg 67%
10:00 +25°C° 0.1 mm 1 mps 656 mmHg 65%
11:00 +26°C° 0.1 mm 1 mps 656 mmHg 64%
12:00 +27°C° 0.1 mm 1 mps 656 mmHg 63%
13:00 +26°C° 1.1 mm 1 mps 655 mmHg 70%
14:00 +26°C° 1.1 mm 1 mps 654 mmHg 77%
15:00 +25°C° 1.1 mm 1 mps 653 mmHg 84%
16:00 +24°C° 0.8 mm 1 mps 653 mmHg 87%
17:00 +23°C° 0.8 mm 1 mps 653 mmHg 89%
18:00 +23°C° 0.8 mm 1 mps 653 mmHg 92%
19:00 +22°C° 0.7 mm 1 mps 653 mmHg 94%
20:00 +21°C° 0.7 mm 1 mps 653 mmHg 95%
21:00 +20°C° 0.7 mm 1 mps 654 mmHg 97%
22:00 +19°C° 0 mm 1 mps 654 mmHg 97%
23:00 +17°C° 0 mm 0 mps 653 mmHg 97%

9 July, Thursday

Time Temperature Precipitation Wind Pressure Humidity
00:00 +16°C° 0 mm 0 mps 653 mmHg 97%
01:00 +16°C° 0 mm 0 mps 653 mmHg 97%
02:00 +16°C° 0 mm 0 mps 652 mmHg 97%
03:00 +16°C° 0 mm 0 mps 652 mmHg 96%
04:00 +15°C° 0 mm 0 mps 652 mmHg 96%
05:00 +15°C° 0 mm 0 mps 652 mmHg 96%
06:00 +15°C° 0 mm 0 mps 653 mmHg 97%
07:00 +18°C° 0 mm 0 mps 654 mmHg 88%
08:00 +20°C° 0 mm 0 mps 655 mmHg 79%
09:00 +22°C° 0 mm 0 mps 655 mmHg 70%
10:00 +25°C° 0.1 mm 1 mps 655 mmHg 66%
11:00 +26°C° 0.1 mm 1 mps 655 mmHg 63%
12:00 +27°C° 0.1 mm 1 mps 655 mmHg 60%
13:00 +27°C° 0.5 mm 2 mps 655 mmHg 64%
14:00 +26°C° 0.5 mm 2 mps 654 mmHg 69%
15:00 +26°C° 0.5 mm 2 mps 653 mmHg 74%
16:00 +25°C° 0.3 mm 1 mps 653 mmHg 79%
17:00 +23°C° 0.3 mm 1 mps 653 mmHg 84%
18:00 +20°C° 0.3 mm 0 mps 653 mmHg 90%
19:00 +21°C° 0 mm 1 mps 653 mmHg 92%
20:00 +20°C° 0 mm 1 mps 653 mmHg 94%
21:00 +19°C° 0 mm 1 mps 654 mmHg 95%
22:00 +19°C° 0 mm 1 mps 654 mmHg 95%
23:00 +19°C° 0 mm 1 mps 654 mmHg 95%

10 July, Friday

Time Temperature Precipitation Wind Pressure Humidity
00:00 +18°C° 0 mm 1 mps 654 mmHg 95%
01:00 +16°C° 0 mm 0 mps 654 mmHg 94%
02:00 +16°C° 0 mm 0 mps 653 mmHg 93%
03:00 +15°C° 0 mm 0 mps 653 mmHg 92%
04:00 +15°C° 0 mm 0 mps 653 mmHg 92%
05:00 +15°C° 0 mm 0 mps 653 mmHg 92%
06:00 +15°C° 0 mm 0 mps 653 mmHg 92%
07:00 +17°C° 0 mm 0 mps 654 mmHg 88%
08:00 +18°C° 0 mm 0 mps 655 mmHg 84%
09:00 +20°C° 0 mm 0 mps 655 mmHg 81%
10:00 +23°C° 0.2 mm 1 mps 655 mmHg 76%
11:00 +25°C° 0.2 mm 1 mps 655 mmHg 72%
12:00 +26°C° 0.2 mm 1 mps 656 mmHg 67%
13:00 +25°C° 1.6 mm 1 mps 655 mmHg 75%
14:00 +24°C° 1.6 mm 1 mps 654 mmHg 83%
15:00 +23°C° 1.6 mm 1 mps 654 mmHg 91%
16:00 +22°C° 1.5 mm 1 mps 654 mmHg 93%
17:00 +22°C° 1.5 mm 1 mps 654 mmHg 95%
18:00 +19°C° 1.5 mm 0 mps 654 mmHg 97%
19:00 +18°C° 0.7 mm 0 mps 654 mmHg 97%
20:00 +17°C° 0.7 mm 0 mps 654 mmHg 98%
21:00 +19°C° 0.7 mm 1 mps 654 mmHg 98%
22:00 +19°C° 0.5 mm 1 mps 654 mmHg 98%
23:00 +16°C° 0.5 mm 0 mps 654 mmHg 98%

11 July, Saturday

Time Temperature Precipitation Wind Pressure Humidity
00:00 +16°C° 0.5 mm 0 mps 654 mmHg 98%
01:00 +16°C° 0.8 mm 0 mps 654 mmHg 98%
02:00 +16°C° 0.8 mm 0 mps 654 mmHg 98%
03:00 +16°C° 0.8 mm 0 mps 653 mmHg 98%
04:00 +16°C° 0 mm 0 mps 653 mmHg 98%
05:00 +16°C° 0 mm 0 mps 653 mmHg 98%
06:00 +16°C° 0 mm 0 mps 653 mmHg 98%
07:00 +17°C° 0 mm 0 mps 654 mmHg 92%
08:00 +19°C° 0 mm 0 mps 655 mmHg 87%
09:00 +21°C° 0 mm 0 mps 656 mmHg 81%
10:00 +24°C° 0.1 mm 1 mps 656 mmHg 73%
11:00 +26°C° 0.1 mm 1 mps 656 mmHg 66%
12:00 +27°C° 0.1 mm 1 mps 656 mmHg 58%
13:00 +26°C° 0.9 mm 1 mps 655 mmHg 65%
14:00 +25°C° 0.9 mm 1 mps 655 mmHg 73%
15:00 +25°C° 0.9 mm 1 mps 654 mmHg 80%
16:00 +23°C° 0.8 mm 1 mps 654 mmHg 85%
17:00 +22°C° 0.8 mm 1 mps 654 mmHg 89%
18:00 +19°C° 0.8 mm 0 mps 654 mmHg 94%
19:00 +20°C° 0.2 mm 1 mps 654 mmHg 95%
20:00 +19°C° 0.2 mm 1 mps 654 mmHg 96%
21:00 +18°C° 0.2 mm 1 mps 654 mmHg 97%
22:00 +18°C° 0 mm 1 mps 654 mmHg 96%
23:00 +16°C° 0 mm 1 mps 654 mmHg 96%
Show more